Flag for Brazil Weather past 2 weeks in Ribeirão Prêto, São Paulo, Brazil

Now
61 °F

Sunny.


Feels Like: 61 °F
Forecast: 63 / 81 °F
Wind: 1 mph from East

Location: Leite Lopes / Ribeir

Current Time: May 22, 2015 at 6:31:01 AM

Latest Report: May 22, 2015 at 6:00 AM


Visibility: 10 mi

Pressure: 30.18 "Hg

Humidity: 88%

Dew point: 57 °F

Location of Ribeirão PrêtoLocation

Historic Weather in Ribeirão Prêto — Graph

°F

Ribeirão Prêto temperature yesterday

Maximum temperature yesterday: 81 °F (at 3:00 PM)
Minimum temperature yesterday: 63 °F (at 2:00 AM)
Average temperature yesterday: 70 °F

Past Weeks' High & Low Weather Summary

 TemperatureHumidityPressure
High84 °F (May 9, 2:00 PM)100% (May 7, 5:00 AM)30.27 "Hg (May 7, 5:00 AM)
Low55 °F (May 8, 6:00 AM)36% (May 12, 2:00 PM)29.89 "Hg (May 10, 4:00 PM)
Average68 °F73%30.10 "Hg
* Reported May 7 5:00 AM — May 22 5:00 AM, Ribeirão Prêto, Weather by CustomWeather, © 2015

Note: Actual official high and low records may vary slightly from our data, if they occured in-between our weather recording intervals... More about our weather records

Advertising

Ribeirão Prêto weather history for previous 24 hours

 ConditionsComfort  
Time TempWeatherWind HumidityBarometerVisibility
5:00 AM
Fri, May 22
61 °FClear.3 mph88%30.18 "Hg10 mi
4:00 AM63 °FClear.No wind88%30.15 "Hg10 mi
3:00 AM63 °FClear.No wind88%30.18 "Hg10 mi
2:00 AM64 °FClear.3 mph83%30.18 "Hg10 mi
1:00 AM64 °FClear.5 mph83%30.18 "Hg10 mi
12:00 AM66 °FClear.5 mph78%30.18 "Hg10 mi
11:00 PM
Thu, May 21
66 °FClear.6 mph78%30.15 "Hg10 mi
10:00 PM68 °FClear.6 mph78%30.15 "Hg10 mi
9:00 PM68 °FClear.5 mph78%30.15 "Hg10 mi
8:00 PM70 °FClear.5 mph73%30.15 "Hg10 mi
7:00 PM73 °FClear.5 mph65%30.15 "Hg10 mi
6:00 PM75 °FClear.5 mph61%30.15 "Hg10 mi
5:00 PM77 °FPassing clouds.5 mph57%30.15 "HgN/A
4:00 PM79 °FScattered clouds.8 mph54%30.12 "HgN/A
3:00 PM81 °FScattered clouds.8 mph51%30.12 "HgN/A
2:00 PM79 °FScattered clouds.8 mph54%30.15 "HgN/A
1:00 PM79 °FPassing clouds.8 mph51%30.15 "HgN/A
12:00 PM77 °FPassing clouds.8 mph54%30.18 "HgN/A
11:00 AM75 °FSunny.10 mph57%30.21 "Hg10 mi
10:00 AM72 °FSunny.9 mph65%30.21 "Hg10 mi
9:00 AM70 °FSunny.12 mph73%30.21 "Hg10 mi
8:00 AM64 °FSunny.6 mph83%30.18 "Hg10 mi
7:00 AM63 °FSunny.3 mph88%30.15 "Hg10 mi
6:00 AM63 °FSunny.6 mph88%30.15 "Hg10 mi
Weather by CustomWeather, © 2015

See weather overviewHow to use our weather pages